Overview Statistics Trail Chart Weather Telemetry Raw packets
 

This is the latest recevied weather packets stored in our database for station/object SR4DIG-13. If no packets are shown the sender has not sent any weather packets the latest 10 day(s).

<< 94 95 96 97 98 99 100 >>
Time Temp. Humidity Pressure Rain* Wind** Luminosity Snow
1787901435 21.11° C 53% 1024.6 hPa 0 mm - - -
1787901134 21.11° C 54% 1024.5 hPa 0 mm - - -
1787900833 20.56° C 55% 1024.6 hPa 0 mm - - -
1787900340 19.44° C 57% 1024.8 hPa 0 mm - - -
1787899861 19.44° C 57% 1024.4 hPa 0 mm - - -
1787899560 19.44° C 57% 1024.4 hPa 0 mm - - -
1787899259 19.44° C 57% 1024.5 hPa 0 mm - - -
1787898958 19.44° C 58% 1024.7 hPa 0 mm - - -
1787898657 19.44° C 59% 1024.4 hPa 0 mm - - -
1787898356 19.44° C 58% 1024.5 hPa 0 mm - - -
1787898055 19.44° C 57% 1024.8 hPa 0 mm - - -
1787897754 18.89° C 60% 1024.8 hPa 0 mm - - -
1787897454 18.33° C 61% 1024.8 hPa 0 mm - - -
1787897153 18.33° C 63% 1024.7 hPa 0 mm - - -
1787896852 17.22° C 63% 1024.7 hPa 0 mm - - -
1787896551 17.22° C 62% 1024.5 hPa 0 mm - - -
1787896315 13.33° C 74% 1024.7 hPa 0 mm - - -
1787896250 17.78° C 62% 1024.7 hPa 0 mm - - -
1787895949 17.22° C 63% 1024.7 hPa 0 mm - - -
1787895648 17.22° C 63% 1024.6 hPa 0 mm - - -
1787895399 17.78° C 61% 1024.5 hPa 0 mm - - -
1787895348 17.78° C 61% 1024.5 hPa 0 mm - - -
1787895046 17.78° C 63% 1024.5 hPa 0 mm - - -
1787894745 17.78° C 65% 1024.7 hPa 0 mm - - -
1787894541 16.11° C 66% 1024.5 hPa 0 mm - - -

* Rain latest hour (hover to see other rain measurements)
** Current wind speed in m/s (hover to see current wind gust speed)